[[{"header":{"parameterUnit":"m.s-1","parameterCategory":1,"la1":30.2991,"la2":30.254,"lo1":-89.0895,"lo2":-89.0444,"dy":0.0017,"dx":0.0017,"nx":28,"ny":28,"refTime":"2025-03-25T03:00:00:Z","depth":0,"parameterNumber":2,"parameterNumberName":"U-component_of_WINDS"},"data":[0,0,0,0,0,0,0,0,0,0,0,0,0,0,0,0,0,0,0,0,0,0,0,0,0,0,0,0,0,0,0,0,0,0,0,0,0,0,0,0,0,0,0,0,0,0,0,0,0,0,0,0,0,0,0,0,0,0,0.2341,0.2342,0,0.2436,0.2437,0.2438,0.2483,0.2482,0.2482,0.2482,0.2579,0.2581,0.2584,0,0,0,0,0,0,0,0,0,0,0,0,0,0.2194,0.2197,0.2341,0.2342,0.2343,0.2436,0.2437,0.2439,0.2483,0.2482,0.2482,0.2482,0.2578,0.2581,0.2584,0,0,0,0,0,0,0,0,0,0,0,0,0,0.227,0.2197,0.234,0.2376,0.238,0.2436,0.2437,0.2439,0.2483,0.2482,0.2482,0.2482,0.2577,0.2581,0.2585,0.2611,0,0,0.2597,0.2598,0,0,0,0,0,0,0,0,0.2266,0.2276,0.237,0.2374,0.2379,0.2447,0.2421,0.2497,0.2483,0.2444,0.2482,0.2482,0.2535,0.2542,0.2561,0.2616,0.262,0.2597,0.2599,0.2601,0.2602,0,0,0,0,0,0,0,0.2261,0.2272,0.2378,0.2371,0.2376,0.2387,0.2397,0.2435,0.2489,0.2447,0.2451,0.2461,0.2537,0.2557,0.2563,0.2621,0.2597,0.26,0.2603,0.2604,0.2701,0.2702,0,0,0,0,0,0,0.225,0.2267,0.2375,0.2381,0.2321,0.2389,0.2401,0.2425,0.2488,0.2498,0.2461,0.2463,0.255,0.2558,0.2567,0.2601,0.2601,0.2605,0.2607,0.2701,0.2701,0.2702,0,0,0,0,0,0,0.2246,0.2259,0.2372,0.2325,0.234,0.2392,0.2419,0.2427,0.2447,0.2499,0.2509,0.2471,0.255,0.2561,0.26,0.2605,0.2607,0.261,0.2701,0.2701,0.2702,0.2671,0,0,0,0,0,0,0.2242,0.2258,0.2269,0.2325,0.2343,0.2403,0.2419,0.2429,0.2453,0.2457,0.2511,0.252,0.2551,0.2593,0.2603,0.2611,0.2613,0.2701,0.2701,0.2701,0.2672,0.267,0.2669,0,0,0,0,0,0.2237,0.2256,0.2269,0.2282,0.2358,0.2404,0.2414,0.2449,0.2454,0.2465,0.2498,0.2518,0.2603,0.2597,0.2609,0.2617,0.27,0.2701,0.2701,0.2672,0.267,0.2669,0,0,0,0,0,0,0.2199,0.2265,0.228,0.2318,0.2355,0.2411,0.2427,0.2446,0.2482,0.2484,0.2526,0.2538,0.2572,0.2598,0.2591,0.2645,0.2653,0.2656,0.2627,0.2626,0.2624,0.2617,0.2617,0,0,0,0,0,0.2196,0.2228,0.2283,0.2312,0.2329,0.2374,0.2396,0.242,0.246,0.2475,0.2512,0.2549,0.2584,0.2606,0.2641,0.2675,0.2687,0.2687,0.2685,0.2684,0.2686,0.2705,0.2705,0.2703,0.2703,0.2703,0,0,0.2188,0.2228,0.2246,0.2305,0.2337,0.2368,0.2387,0.2421,0.2444,0.248,0.2519,0.2547,0.2591,0.2627,0.2645,0.265,0.2689,0.2684,0.2683,0.2686,0.2705,0.2705,0.2705,0.2703,0.2703,0.2703,0,0,0.2191,0.2225,0.2252,0.2283,0.233,0.236,0.2366,0.2419,0.2439,0.2478,0.2506,0.2534,0.2593,0.2624,0.2647,0.2659,0.2678,0.2669,0.2662,0.268,0.268,0.268,0.2684,0.2685,0.2671,0.2671,0.2671,0,0.2176,0.2226,0.2263,0.2295,0.232,0.2353,0.2381,0.2409,0.2465,0.2481,0.2486,0.256,0.2593,0.2636,0.2638,0.2656,0.2664,0.2664,0.2677,0.2678,0.2678,0.2683,0.2684,0.2669,0.267,0.267,0.267,0,0.2205,0.2238,0.2255,0.2308,0.2335,0.2364,0.2404,0.2427,0.2448,0.2476,0.2515,0.2555,0.2598,0.261,0.2631,0.2655,0.2657,0.2669,0.2678,0.2677,0.2681,0.2683,0.2667,0.2668,0.2668,0.2669,0,0,0.2188,0.2261,0.2266,0.229,0.2344,0.2371,0.24,0.2443,0.2461,0.2498,0.2523,0.2572,0.2583,0.2609,0.2634,0.2649,0.2655,0.2659,0.2661,0.2657,0.2684,0.2675,0.2676,0.2668,0.2669,0.2669,0.268,0,0.2198,0.2255,0.2288,0.233,0.2361,0.2393,0.2419,0.2454,0.2481,0.2511,0.254,0.2574,0.2586,0.2602,0.2619,0.2651,0.2661,0.2651,0.2692,0.2693,0.268,0.2679,0.267,0.2678,0.2682,0.2683,0.2683,0,0.2218,0.2255,0.23,0.2349,0.2363,0.2386,0.2427,0.2455,0.2495,0.2514,0.2542,0.2566,0.2598,0.2604,0.2647,0.2639,0.2658,0.2676,0.2677,0.2683,0.2688,0.2684,0.2682,0.2683,0.2686,0.2686,0.2686,0,0.2201,0.2261,0.2296,0.2316,0.2374,0.2389,0.2414,0.2454,0.2477,0.2512,0.2527,0.2565,0.2587,0.2615,0.2649,0.265,0.2689,0.2697,0.2705,0.2704,0.2712,0.2711,0.2713,0.2723,0.2723,0.2723,0.2723,0,0.221,0.2236,0.2289,0.231,0.234,0.2378,0.2406,0.2433,0.2468,0.2494,0.2524,0.2548,0.2591,0.2619,0.2646,0.2677,0.2687,0.2702,0.2709,0.27,0.2698,0.2713,0.2713,0.2724,0.2724,0.2724,0.2723,0,0.2196,0.2233,0.2273,0.2324,0.2338,0.2357,0.2401,0.2422,0.245,0.2483,0.2493,0.2537,0.2572,0.2608,0.2656,0.2674,0.2705,0.2714,0.2691,0.2695,0.27,0.2699,0.2712,0.2715,0.2723,0.2723,0.2723,0,0.2199,0.222,0.2274,0.2294,0.2318,0.235,0.2373,0.241,0.2433,0.2479,0.2495,0.2532,0.2564,0.2619,0.2655,0.2691,0.2701,0.2703,0.2707,0.2697,0.2701,0.2699,0.2701,0.2702,0.2702,0.2701,0.2701,0,0.22,0.2217,0.225,0.2289,0.2316,0.2348,0.2382,0.2396,0.2439,0.2463,0.25,0.2525,0.2573,0.261,0.265,0.2675,0.2695,0.2699,0.2703,0.2694,0.268,0.2687,0.2687,0.2699,0.2699,0.27,0.27,0.27,0.2195,0.2215,0.2256,0.2291,0.232,0.235,0.2372,0.2403,0.2434,0.2477,0.2496,0.2532,0.257,0.2627,0.2651,0.2679,0.2685,0.269,0.2691,0.2692,0.269,0.2675,0.2686,0.2687,0.2687,0.2687,0.2687,0,0.2198,0.2226,0.2258,0.2303,0.233,0.2347,0.2384,0.2406,0.2438,0.2471,0.2502,0.2543,0.2578,0.2616,0.2653,0.2669,0.2679,0.2677,0.2676,0.2682,0.2683,0.2676,0.2668,0.2668,0.2668,0.2668,0.2668,0.2668,0.2203,0.2237,0.2258,0.2306,0.2333,0.2369,0.2389,0.2416,0.2443,0.2488,0.2518,0.2542,0.2577,0.2617,0.2649,0.266,0.2672,0.2667,0.268,0.268,0.2682,0.2683,0.2677,0.267,0.267,0.2677,0.2677,0.2677]},{"header":{"parameterUnit":"m.s-1","parameterCategory":1,"la1":30.2991,"la2":30.254,"lo1":-89.0895,"lo2":-89.0444,"dy":0.0017,"dx":0.0017,"nx":28,"ny":28,"refTime":"2025-03-25T03:00:00:Z","depth":0,"parameterNumber":3,"parameterNumberName":"V-component_of_WINDS"},"data":[0,0,0,0,0,0,0,0,0,0,0,0,0,0,0,0,0,0,0,0,0,0,0,0,0,0,0,0,0,0,0,0,0,0,0,0,0,0,0,0,0,0,0,0,0,0,0,0,0,0,0,0,0,0,0,0,0,0,2.3199,2.3199,0,2.3204,2.3204,2.3204,2.3176,2.3175,2.3175,2.3174,2.3178,2.3179,2.318,0,0,0,0,0,0,0,0,0,0,0,0,0,2.3164,2.3165,2.3199,2.3199,2.3199,2.3204,2.3204,2.3204,2.3176,2.3175,2.3174,2.3174,2.3178,2.3179,2.318,0,0,0,0,0,0,0,0,0,0,0,0,0,2.3175,2.3165,2.3199,2.3186,2.3185,2.3204,2.3204,2.3204,2.3177,2.3175,2.3174,2.3173,2.3178,2.3179,2.318,2.3212,0,0,2.3184,2.3185,0,0,0,0,0,0,0,0,2.3175,2.3177,2.3188,2.3187,2.3186,2.3188,2.3194,2.3207,2.3177,2.318,2.3174,2.3172,2.3183,2.3183,2.3187,2.3213,2.3213,2.3184,2.3185,2.3186,2.3186,0,0,0,0,0,0,0,2.3174,2.3176,2.3201,2.3188,2.3187,2.3179,2.318,2.3196,2.3188,2.3179,2.3177,2.3178,2.3182,2.3186,2.3187,2.3213,2.3184,2.3185,2.3186,2.3187,2.3265,2.3266,0,0,0,0,0,0,2.3175,2.3176,2.3201,2.3201,2.3177,2.3181,2.3181,2.3189,2.3188,2.3186,2.3179,2.3177,2.3184,2.3185,2.3187,2.3225,2.3186,2.3187,2.3188,2.3264,2.3265,2.3267,0,0,0,0,0,0,2.3174,2.3178,2.3201,2.3188,2.319,2.3183,2.3192,2.319,2.3194,2.3188,2.3186,2.3185,2.3183,2.3185,2.3206,2.3225,2.3187,2.3189,2.3262,2.3264,2.3266,2.3301,0,0,0,0,0,0,2.3174,2.3178,2.319,2.3189,2.3191,2.3221,2.3193,2.319,2.3196,2.3193,2.3193,2.3191,2.3182,2.3205,2.3208,2.3226,2.319,2.3261,2.3263,2.3266,2.3298,2.3304,2.3309,0,0,0,0,0,2.3172,2.3199,2.3191,2.3194,2.3207,2.3222,2.3223,2.3213,2.3198,2.321,2.3206,2.3191,2.3222,2.3207,2.321,2.3229,2.3259,2.3262,2.3265,2.3296,2.3303,2.3309,0,0,0,0,0,0,2.3203,2.3199,2.3189,2.3217,2.322,2.3217,2.3232,2.322,2.3228,2.3225,2.3211,2.3211,2.3235,2.3234,2.3217,2.326,2.3238,2.3242,2.326,2.3267,2.3272,2.3272,2.3191,0,0,0,0,0,2.3213,2.3226,2.3221,2.3246,2.3248,2.324,2.3246,2.3238,2.324,2.3241,2.3239,2.3242,2.3252,2.3259,2.3268,2.3298,2.3297,2.3312,2.3317,2.3322,2.3325,2.3341,2.3348,2.3276,2.3276,2.3276,0,0,2.3233,2.3233,2.3242,2.3252,2.3253,2.3267,2.3241,2.3256,2.3266,2.3243,2.3264,2.3262,2.3264,2.329,2.3301,2.329,2.3345,2.3325,2.3329,2.333,2.3345,2.3352,2.3358,2.3278,2.3278,2.3278,0,0,2.3278,2.3279,2.33,2.3302,2.3304,2.3299,2.3304,2.3302,2.3301,2.3321,2.3304,2.3315,2.3333,2.3335,2.3339,2.3384,2.3371,2.3387,2.3415,2.3431,2.3437,2.3442,2.3458,2.3464,2.3391,2.3391,2.3391,0,2.3303,2.3323,2.3312,2.3328,2.3333,2.3313,2.3334,2.3336,2.3342,2.3346,2.3333,2.3355,2.3355,2.3381,2.3392,2.3396,2.3401,2.3388,2.3437,2.3442,2.3446,2.3462,2.3468,2.3393,2.3393,2.3393,2.3392,0,2.3355,2.3369,2.3385,2.3391,2.3398,2.3416,2.3407,2.3415,2.3406,2.3402,2.3423,2.3422,2.3431,2.3436,2.3427,2.3461,2.3454,2.3439,2.3417,2.3455,2.347,2.3476,2.3396,2.3395,2.3395,2.3394,0,0,2.3419,2.3419,2.3425,2.3428,2.3429,2.3439,2.3457,2.3466,2.3473,2.3477,2.3492,2.3507,2.3494,2.3498,2.3489,2.3502,2.3539,2.3486,2.3486,2.3496,2.3577,2.3588,2.3595,2.353,2.3531,2.3532,2.3577,0,2.3464,2.3494,2.3484,2.3515,2.3528,2.3509,2.3524,2.3526,2.3523,2.3533,2.3528,2.354,2.3521,2.3523,2.3536,2.3532,2.3555,2.3528,2.3543,2.3544,2.3544,2.3603,2.3615,2.3658,2.3582,2.3583,2.3584,0,2.352,2.3527,2.3559,2.3558,2.3563,2.3577,2.3584,2.3594,2.3596,2.3593,2.3597,2.3585,2.3602,2.3579,2.3602,2.3585,2.359,2.3589,2.359,2.3592,2.3567,2.3607,2.3671,2.3678,2.3593,2.3592,2.3591,0,2.3565,2.3582,2.3603,2.3606,2.3605,2.3616,2.3616,2.3617,2.3623,2.3629,2.3633,2.364,2.3645,2.3651,2.3642,2.3626,2.3667,2.3643,2.3664,2.3665,2.3674,2.3674,2.3741,2.3677,2.3676,2.3676,2.3676,0,2.3616,2.3636,2.3624,2.3637,2.366,2.3647,2.367,2.3668,2.3669,2.3681,2.3665,2.3677,2.3663,2.3674,2.3666,2.3687,2.3689,2.3686,2.3684,2.3688,2.3689,2.3692,2.369,2.3678,2.3678,2.3677,2.3677,0,2.367,2.3662,2.3685,2.3682,2.3682,2.3699,2.3697,2.3709,2.3704,2.372,2.3723,2.3715,2.3727,2.3718,2.3729,2.3724,2.3751,2.3745,2.3751,2.375,2.3772,2.377,2.3844,2.3853,2.3782,2.3783,2.3783,0,2.3704,2.3719,2.3718,2.3726,2.3727,2.3739,2.3745,2.3733,2.374,2.3744,2.3756,2.3766,2.3774,2.3793,2.3788,2.3797,2.3791,2.3816,2.3792,2.3796,2.3792,2.3792,2.3794,2.3821,2.3822,2.3823,2.3824,0,2.3764,2.376,2.3769,2.3778,2.3786,2.3791,2.3796,2.3803,2.3791,2.3799,2.3811,2.3817,2.3829,2.384,2.3847,2.3846,2.3833,2.3831,2.3837,2.3841,2.3845,2.3844,2.3765,2.383,2.3829,2.3829,2.3828,2.3828,2.381,2.3823,2.3825,2.3836,2.3838,2.3843,2.3854,2.3851,2.386,2.3869,2.3861,2.3876,2.3877,2.3885,2.3887,2.3898,2.3887,2.3895,2.3897,2.39,2.3903,2.3842,2.3899,2.3899,2.3898,2.3898,2.3898,0,2.387,2.3871,2.3881,2.3888,2.3897,2.3883,2.3888,2.3896,2.3909,2.3911,2.392,2.3933,2.3943,2.3939,2.3948,2.3958,2.3952,2.3961,2.396,2.3961,2.3912,2.3906,2.3965,2.3965,2.3965,2.3965,2.3965,2.3965,2.3903,2.3925,2.392,2.3943,2.3942,2.3957,2.396,2.3964,2.3966,2.3983,2.3991,2.3988,2.3988,2.3997,2.4006,2.4004,2.4008,2.4019,2.4016,2.397,2.3964,2.3958,2.3953,2.402,2.402,2.4064,2.4064,2.4065]}]]